Location: Unspecified
(0.0000°N, 0.0000°E)
Time: 16:02:21
(UTC+00:00)

DANDE - Visible Passes

Search period start: 28 May 2023 00:00
Search period end: 07 June 2023 00:00
Orbit: 316 x 1214 km, 81.0° (Epoch: 28 May)

Date Brightness Start Highest point End Pass type
(mag) Time Alt. Az. Time Alt. Az. Time Alt. Az.
28 May ? 04:19:51 51° SW 04:20:53 62° W 04:25:23 10° N visible
29 May ? 03:44:02 51° ENE 03:44:02 51° ENE 03:47:46 10° NNE visible
30 May ? 03:08:00 16° ENE 03:08:00 16° ENE 03:09:14 10° NE visible
30 May ? 04:48:17 14° WNW 04:48:17 14° WNW 04:49:17 10° NW visible
31 May ? 04:12:03 17° NNW 04:12:03 17° NNW 04:13:05 10° NNW visible
01 Jun ? 03:35:41 10° N 03:35:41 10° N 03:35:44 10° N visible
